Location: Ferques
(50.8300°N, 1.7599°E)
Time: 04:49:14
(UTC+00:00)

NOSS 3-1 (C) - Pass Details

Date: 19 May 2025
Orbit: 632 x 1571 km, 63.4° (Epoch: 02 June)

Event Time Altitude Azimuth Distance (km) Brightness Sun altitude
Rises 22:06:27 0° 232° (SW) 3,018 6.0 -15.7°
Reaches altitude 10° 22:08:36 10° 235° (SW) 2,172 5.2 -15.8°
Maximum altitude 22:13:29 69° 319° (NW) 857 3.4 -16.1°
Drops below altitude 10° 22:19:33 10° 43° (NE) 2,674 6.1 -16.5°
Sets 22:22:26 0° 46° (NE) 3,778 6.9 -16.6°
